RADUGA-1M 3 1 39375U 13062A 21058.53033334 .00000150 00000-0 00000-0 0 9995 2 39375 1.0574 95.2056 0002710 300.1108 348.2225 1.00274841 26715 BREEZE-M R/B 1 39376U 13062B 21062.55761300 -.00000234 00000-0 00000-0 0 9998 2 39376 5.2755 69.4183 0243165 57.8026 304.7481 1.04209905 27819